This is the latest recevied weather packets stored in our database for station/object 9W3FAB-1. If no packets are shown the sender has not sent any weather packets the latest 10 day(s).
| Time | Temp. | Humidity | Pressure | Rain* | Wind** | Luminosity | Snow |
|---|---|---|---|---|---|---|---|
| 1777399335 | 27.78° C | 100% | 1007.1 hPa | - | - | - | - |
| 1777398434 | 27.22° C | 100% | 1007.3 hPa | - | - | - | - |
| 1777397533 | 27.22° C | 100% | 1007.2 hPa | - | - | - | - |
| 1777396632 | 27.78° C | 100% | 1007.3 hPa | - | - | - | - |
| 1777395731 | 27.78° C | 100% | 1007.5 hPa | - | - | - | - |
| 1777394831 | 27.78° C | 100% | 1007.6 hPa | - | - | - | - |
| 1777393929 | 27.78° C | 100% | 1007.5 hPa | - | - | - | - |
| 1777393028 | 27.78° C | 100% | 1007.7 hPa | - | - | - | - |
| 1777392128 | 27.78° C | 100% | 1008 hPa | - | - | - | - |
| 1777391227 | 27.78° C | 100% | 1008.2 hPa | - | - | - | - |
| 1777390326 | 27.78° C | 100% | 1008.3 hPa | - | - | - | - |
| 1777389425 | 27.22° C | 100% | 1008.4 hPa | - | - | - | - |
| 1777388524 | 27.78° C | 100% | 1008.6 hPa | - | - | - | - |
| 1777387623 | 27.78° C | 100% | 1008.3 hPa | - | - | - | - |
| 1777386722 | 27.22° C | 100% | 1008 hPa | - | - | - | - |
| 1777385822 | 27.22° C | 100% | 1007.8 hPa | - | - | - | - |
| 1777384921 | 27.78° C | 100% | 1007.5 hPa | - | - | - | - |
| 1777384020 | 27.78° C | 100% | 1007.4 hPa | - | - | - | - |
| 1777383119 | 27.78° C | 100% | 1007.4 hPa | - | - | - | - |
| 1777382218 | 27.22° C | 100% | 1007.3 hPa | - | - | - | - |
| 1777381318 | 28.33° C | 100% | 1007.2 hPa | - | - | - | - |
| 1777380417 | 28.33° C | 100% | 1007.1 hPa | - | - | - | - |
| 1777379516 | 27.78° C | 100% | 1007 hPa | - | - | - | - |
| 1777378615 | 28.33° C | 100% | 1007 hPa | - | - | - | - |
| 1777377714 | 28.33° C | 100% | 1006.9 hPa | - | - | - | - |
* Rain since midnight (hover to see other rain measurements)
** Current wind speed in m/s (hover to see current wind gust speed)